Terug naar catalogus

CHINASAT 20A

ActiefCommunicatieGEO
NORAD 37234·PAYLOAD·🇨🇳 China

Gelanceerd Nov 24, 2010 vanaf Xichang Satellite Launch Center

Loading…

TLE

VersSource: Space-Track

Epoch: Sep 14, 2026, 05:22 UTC

1 37234U 10064A   26257.22420409 -.00000083  00000-0  00000-0 0  9997
2 37234   7.5048  80.1414 0021289 273.6435 107.8478  0.98417841 57644

Volg CHINASAT 20A in realtime met AllMySat

Download on the App Store